Change the Weather History Date:

Sunday, October 4, 2009

  Actual Average (LPAZ) Record (LPAZ)
Temperature  
Mean Temperature 68 °F -  
Max Temperature 71 °F 72 °F 77 °F (2004)
Min Temperature 66 °F 65 °F 59 °F (2013)
Cooling Degree Days 4    
Growing Degree Days 18 (Base 50)    
Moisture  
Dew Point 66 °F    
Average Humidity 87    
Maximum Humidity 94    
Minimum Humidity 78    
Precipitation  
Precipitation 0.08 in - - ()
Sea Level Pressure  
Sea Level Pressure 29.56 in    
Wind  
Wind Speed 15 mph ()    
Max Wind Speed 31 mph    
Max Gust Speed 44 mph    
Visibility 6.2 miles    
Events Rain , Thunderstorm    
Averages and records for this station are not official NWS values.
T = Trace of Precipitation, MM = Missing Value Source: Averaged Metar Reports

Daily Weather History Graph

Daily Weather History Graph

Search for Another Location

Airport or City:

Trip Planner

Search our weather history database for the weather conditions in past years. The results will help you decide how hot, cold, wet, or windy it might be!

Date:

Astronomy

Oct. 04, 2009 Rise Set
Actual Time 7:41 AM AZOST 7:21 PM AZOST
Civil Twilight 7:14 AM AZOST 7:47 PM AZOST
Nautical Twilight 6:44 AM AZOST 8:17 PM AZOST
Astronomical Twilight 6:13 AM AZOST 8:48 PM AZOST
Moon 7:11 PM AZOST (10/4) 7:54 AM AZOST (10/4)
Length of Visible Light 12h 32m
Length of Day
11h 40m
Full, 100% of the Moon is Illuminated
Oct 4
Full
Oct 11
Last Quarter
Oct 18
New
Oct 25
First Quarter
Nov 2
Full

Hourly Weather History & Observations

Time (AZOST) Temp. Dew Point Humidity Pressure Visibility Wind Dir Wind Speed Gust Speed Precip Events Conditions
12:00 AM 69 °F 65 °F 85% 29.72 in - South 11.2 mph - -  
12:00 AM 69.8 °F 66.2 °F 88% 29.68 in 6.2 mi South 9.2 mph - N/A   Partly Cloudy
12:30 AM 69.8 °F 64.4 °F 83% 29.68 in 5.0 mi SSW 10.4 mph - N/A Rain , Thunderstorm Thunderstorms and Rain
1:00 AM 68.0 °F 64.4 °F 88% 29.68 in 5.0 mi SSW 13.8 mph - N/A Rain , Thunderstorm Thunderstorms and Rain
2:00 AM 68.0 °F 64.4 °F 88% 29.65 in 6.2 mi South 9.2 mph - N/A   Partly Cloudy
3:00 AM 67 °F 64 °F 86% 29.66 in - South 11.2 mph - -  
3:00 AM 68.0 °F 64.4 °F 88% 29.62 in 6.2 mi South 10.4 mph - N/A   Partly Cloudy
4:00 AM 69.8 °F 66.2 °F 88% 29.59 in 5.0 mi South 13.8 mph - N/A Rain Light Rain Showers
5:00 AM 69.8 °F 66.2 °F 88% 29.59 in 6.2 mi SW 15.0 mph - N/A   Partly Cloudy
6:00 AM 69 °F 66 °F 86% 29.61 in - SW 13.4 mph - -  
6:00 AM 69.8 °F 66.2 °F 88% 29.56 in 6.2 mi SW 12.7 mph - N/A   Partly Cloudy
6:30 AM 69.8 °F 66.2 °F 88% 29.56 in 6.2 mi SW 13.8 mph - N/A   Partly Cloudy
7:00 AM 69.8 °F 66.2 °F 88% 29.56 in 6.2 mi SW 10.4 mph - N/A   Partly Cloudy
7:30 AM 69.8 °F 66.2 °F 88% 29.56 in 6.2 mi SW 12.7 mph - N/A   Partly Cloudy
8:00 AM 68.0 °F 64.4 °F 88% 29.56 in 6.2 mi SW 12.7 mph - N/A   Partly Cloudy
8:30 AM 69.8 °F 66.2 °F 88% 29.56 in 6.2 mi SW 11.5 mph - N/A   Partly Cloudy
9:00 AM 70 °F 65 °F 81% 29.59 in 12 mi SW 17.9 mph - -   Partly Cloudy
9:00 AM 69.8 °F 66.2 °F 88% 29.56 in 6.2 mi SW 15.0 mph - N/A   Partly Cloudy
9:30 AM 69.8 °F 66.2 °F 88% 29.56 in 6.2 mi SW 15.0 mph - N/A   Partly Cloudy
10:00 AM 69.8 °F 66.2 °F 88% 29.56 in 6.2 mi SW 13.8 mph - N/A   Scattered Clouds
10:30 AM 69.8 °F 66.2 °F 88% 29.56 in 6.2 mi SW 13.8 mph - N/A   Partly Cloudy
11:00 AM 69.8 °F 66.2 °F 88% 29.56 in 6.2 mi SW 13.8 mph - N/A Rain Light Rain Showers
11:30 AM 71.6 °F 66.2 °F 83% 29.53 in 6.2 mi SSW 13.8 mph - N/A   Mostly Cloudy
12:00 PM 71 °F 66 °F 78% 29.55 in 9 mi SSW 20.1 mph - -   Partly Cloudy
12:00 PM 71.6 °F 66.2 °F 83% 29.53 in 6.2 mi SSW 18.4 mph - N/A   Scattered Clouds
12:30 PM 71.6 °F 66.2 °F 83% 29.50 in 6.2 mi SSW 17.3 mph - N/A   Scattered Clouds
1:00 PM 71.6 °F 64.4 °F 78% 29.47 in 6.2 mi SSW 24.2 mph - N/A   Partly Cloudy
1:30 PM 69.8 °F 66.2 °F 88% 29.47 in 3.1 mi SW 27.6 mph - N/A   Scattered Clouds
2:00 PM 69.8 °F 66.2 °F 88% 29.44 in 3.1 mi SW 31.1 mph 43.7 mph N/A   Scattered Clouds
2:30 PM 69.8 °F 68.0 °F 94% 29.42 in 3.7 mi WSW 28.8 mph 42.6 mph N/A   Scattered Clouds
3:00 PM 71 °F 66 °F 78% 29.46 in 4 mi WSW 31.3 mph - -   Partly Cloudy
3:00 PM 71.6 °F 66.2 °F 83% 29.44 in 4.3 mi WSW 27.6 mph 39.1 mph N/A   Scattered Clouds
3:30 PM 71.6 °F 66.2 °F 83% 29.47 in 6.2 mi West 28.8 mph - N/A   Partly Cloudy
4:00 PM 69.8 °F 66.2 °F 88% 29.47 in 4.3 mi West 28.8 mph - N/A Rain Light Rain Showers
4:30 PM 69.8 °F 68.0 °F 94% 29.47 in 4.3 mi West 25.3 mph - N/A   Partly Cloudy
5:00 PM 69.8 °F 66.2 °F 88% 29.50 in 4.3 mi West 26.5 mph - N/A   Partly Cloudy
5:30 PM 69.8 °F 66.2 °F 88% 29.50 in 6.2 mi WNW 20.7 mph - N/A   Partly Cloudy
6:00 PM 70 °F 65 °F 81% 29.55 in 12 mi WNW 20.1 mph - -   Partly Cloudy
6:00 PM 69.8 °F 66.2 °F 88% 29.53 in 6.2 mi WNW 23.0 mph - N/A   Partly Cloudy
6:30 PM 69.8 °F 66.2 °F 88% 29.53 in 6.2 mi WNW 21.9 mph - N/A   Partly Cloudy
7:00 PM 69.8 °F 64.4 °F 83% 29.53 in 6.2 mi WNW 20.7 mph - N/A   Partly Cloudy
7:30 PM 69.8 °F 64.4 °F 83% 29.53 in 6.2 mi WNW 18.4 mph - N/A   Partly Cloudy
8:00 PM 68.0 °F 64.4 °F 88% 29.56 in 6.2 mi WNW 17.3 mph - N/A   Partly Cloudy
8:30 PM 69.8 °F 66.2 °F 88% 29.56 in 6.2 mi West 17.3 mph - N/A   Scattered Clouds
9:00 PM 69 °F 65 °F 85% 29.62 in 12 mi West 17.9 mph - -   Partly Cloudy
9:00 PM 69.8 °F 66.2 °F 88% 29.56 in 6.2 mi West 17.3 mph - N/A   Scattered Clouds
9:30 PM 69.8 °F 66.2 °F 88% 29.59 in 6.2 mi West 18.4 mph - N/A   Mostly Cloudy
10:00 PM 68.0 °F 66.2 °F 94% 29.59 in 6.2 mi West 19.6 mph - N/A   Scattered Clouds
10:30 PM 68.0 °F 66.2 °F 94% 29.59 in 6.2 mi West 18.4 mph - N/A   Scattered Clouds
11:00 PM 68.0 °F 66.2 °F 94% 29.59 in 6.2 mi West 18.4 mph - N/A   Scattered Clouds
11:30 PM 68.0 °F 64.4 °F 88% 29.62 in 6.2 mi West 17.3 mph - N/A   Scattered Clouds